Volver al catálogo

STARLINK-36601

ActivoComunicacionesVLEO
NORAD 67618·PAYLOAD·🇺🇸 United States

Lanzado Jan 30, 2026 desde Cape Canaveral Space Force Station

Loading…

Próximos Pases (próximas 24 horas)

TLE

ActualizadoSource: CelesTrak SupGP

Época: Sep 15, 2026, 02:41 UTC

1 67618C 26020B   26258.11229167  .00050206  00000+0  18184-2 0  2584
2 67618  42.9997 150.1296 0001400 274.3068  26.1761 15.27554549    10

Sigue STARLINK-36601 en tiempo real con AllMySat

Download on the App Store